Showing default

GAOFEN 6, 43484

Orbit data source: Space-Track

GAOFEN 6, 43484 is a payload satellite owned by GGKGJ (CN) in SSO that was launched on Sat, 02 Jun 2018 UTC via a CHANG ZHENG 2D launch vehicle from the Jiuquan Satellite Launch Center, China (JSC). Payload-class satellites include a variety of spacecraft equipped with specific instruments for various scientific and technological missions. These include communications satellites like Starlink; space stations such as the ISS; scientific satellites like the Hubble; Earth observation satellites from companies like Planet Labs, Umbra, and HawkEye 360; GPS; miniature CubeSats for education and research; and military/defense satellites.

Loading next visibility...
Identifier
43484, 2018-048A
Orbit
SSO
Country
Flag of CNCN / PRC
Related business
Manufacturer
DFH
Mission
Operational Civil Imaging
Bus & Motor
CAST-2000, AOCS
Mass
1,064 kg wet, ~900 kg dry
Launch date (UTC)
2018-06-02 (7 years ago)
Launch vehicle
CHANG ZHENG 2D
Launch site
Jiuquan Satellite Launch Center, China (JSC)
Object type
Payload
Rocket body
Debris
Shape & HBR
Box + 2 Pan, 2.0 m
Radar Cross Section
4.991 m², Large (>1 m²)

Expand to show TLE details & history
Last TLE update: 8 hours ago

TLE from 8 hours ago
0 GAOFEN 6
1 43484U 18048A   25258.62374263  .00000644  00000-0  99189-4 0  9993
2 43484  97.8147 325.7878 0011749 347.8959  12.1967 14.76602500392874
Epoch: 2025-09-15T14:58Z
TLE epoch observation values (Epoch: 2025-09-15T14:58:11.363Z)
Latitude
-0.00003°
Longitude
106.41473°
Altitude
635.027 km
Speed
7.545 km/s
True Right ascension
21h 43m 09s
True Declination
0° 00' 00"
Sunlit
Object was in full shadow at epoch
Visualization orbit readout
Latitude
Unknown
Longitude
Unknown
Altitude
Unknown
Speed
Unknown
Apparent Right ascension
Unknown
Apparent Declination
Unknown
Sunlit
N/A
Visualization observer readout
Local Sidereal Time
15:08:30
Azimuth
Unknown
Elevation
Unknown
Doppler factor
Unknown
Orbital elements
Apogee altitude
645.353 km
Perigee altitude
628.868 km
Semi-major axis
7,015.248 km
Eccentricity
0.00117
Inclination
97.8147°
RAAN
325.7878°
Arg. of periapsis
347.8959°
True anomaly
12.22518°
Mean anomaly
12.1967°
Eccentric anomaly
12.21094°
Mean motion
3.69385 °/min
Orbital period
97.46 mins
BSTAR
0.000099189
Loading maneuver chart data...
Computing Atmospheric mass density...
Loading historical data...
Loading historical data...
Loading historical data...
Loading historical data...
Loading historical data...
Loading historical data...
Loading historical data...
Other satellites on launch #48 in the year 2018 (2018-06-02 UTC)

Documentation

Showing up to 5 results
|